Liverpool, United Kingdom

12:45 PM GMT on November 18, 2017 (GMT +0000)
Liverpool

Weather History for EGGP - January, 2014

Change the Weather History Date:

Monday, January 20, 2014

  Actual Average Record
Temperature  
Mean Temperature 40 °F -  
Max Temperature 44 °F 45 °F 57 °F (2002)
Min Temperature 35 °F 36 °F 28 °F (2011)
Degree Days  
Heating Degree Days 26    
Moisture  
Dew Point 37 °F    
Average Humidity 90    
Maximum Humidity 93    
Minimum Humidity 81    
Precipitation  
Precipitation 0.00 in - - ()
Sea Level Pressure  
Sea Level Pressure 29.73 in    
Wind  
Wind Speed 5 mph ()    
Max Wind Speed 9 mph    
Max Gust Speed -    
Visibility 6.2 miles    
Events      
Averages and records for this station are not official NWS values.
T = Trace of Precipitation, MM = Missing Value Source: Averaged Metar Reports

Daily Weather History Graph

Daily Weather History Graph

Search for Another Location

Airport or City:

Trip Planner

Search our weather history database for the weather conditions in past years. The results will help you decide how hot, cold, wet, or windy it might be!

Date:

Astronomy

Jan. 20, 2014 Rise Set
Actual Time 8:13 AM GMT 4:31 PM GMT
Civil Twilight 7:33 AM GMT 5:11 PM GMT
Nautical Twilight 6:50 AM GMT 5:55 PM GMT
Astronomical Twilight 6:08 AM GMT 6:36 PM GMT
Moon 9:37 PM GMT (1/20) 9:25 AM GMT (1/20)
Length of Visible Light 9h 38m
Length of Day
8h 18m
Waning Gibbous, 84% of the Moon is Illuminated
Jan 20
Waning Gibbous
Jan 24
Last Quarter
Jan 30
New
Feb 6
First Quarter
Feb 14
Full

Hourly Weather History & Observations

Time (GMT) Temp. Windchill Dew Point Humidity Pressure Visibility Wind Dir Wind Speed Gust Speed Precip Events Conditions
12:20 AM 39.2 °F 33.0 °F 35.6 °F 87% 29.53 in - SSE 9.2 mph - N/A   Clear
12:50 AM 39.2 °F 33.6 °F 35.6 °F 87% 29.53 in - SSE 8.1 mph - N/A   Clear
1:20 AM 37.4 °F 30.8 °F 35.6 °F 93% 29.53 in - SSE 9.2 mph - N/A   Clear
1:50 AM 37.4 °F 30.8 °F 35.6 °F 93% 29.53 in - SSE 9.2 mph - N/A   Clear
2:20 AM 37.4 °F 32.1 °F 35.6 °F 93% 29.56 in - SSE 6.9 mph - N/A   Clear
2:50 AM 37.4 °F 34.9 °F 35.6 °F 93% 29.56 in - Variable 3.5 mph - N/A   Clear
3:20 AM 37.4 °F 32.8 °F 35.6 °F 93% 29.59 in - SE 5.8 mph - N/A   Clear
3:50 AM 37.4 °F 33.8 °F 33.8 °F 87% 29.59 in - SE 4.6 mph - N/A   Clear
4:20 AM 35.6 °F 30.7 °F 33.8 °F 93% 29.59 in - SSE 5.8 mph - N/A   Clear
4:50 AM 35.6 °F 30.7 °F 33.8 °F 93% 29.62 in - South 5.8 mph - N/A   Clear
5:20 AM 35.6 °F 31.7 °F 33.8 °F 93% 29.62 in - South 4.6 mph - N/A   Clear
5:50 AM 37.4 °F 34.9 °F 35.6 °F 93% 29.65 in - Variable 3.5 mph - N/A   Clear
6:20 AM 37.4 °F 32.1 °F 35.6 °F 93% 29.65 in 6.2 mi South 6.9 mph - N/A   Scattered Clouds
6:50 AM 37.4 °F 32.8 °F 35.6 °F 93% 29.65 in 6.2 mi SSE 5.8 mph - N/A   Mostly Cloudy
7:20 AM 37.4 °F 32.8 °F 35.6 °F 93% 29.68 in 6.2 mi South 5.8 mph - N/A   Mostly Cloudy
7:50 AM 35.6 °F 32.8 °F 33.8 °F 93% 29.68 in 6.2 mi Variable 3.5 mph - N/A   Scattered Clouds
8:20 AM 35.6 °F 32.8 °F 33.8 °F 93% 29.71 in 6.2 mi Variable 3.5 mph - N/A   Scattered Clouds
8:50 AM 35.6 °F 30.7 °F 33.8 °F 93% 29.71 in 6.2 mi SE 5.8 mph - N/A   Partly Cloudy
9:20 AM 35.6 °F 31.7 °F 33.8 °F 93% 29.71 in 6.2 mi SE 4.6 mph - N/A   Partly Cloudy
9:50 AM 39.2 °F 37.0 °F 35.6 °F 87% 29.74 in 6.2 mi Variable 3.5 mph - N/A   Partly Cloudy
10:20 AM 39.2 °F 35.9 °F 35.6 °F 87% 29.74 in 6.2 mi SE 4.6 mph - N/A   Partly Cloudy
10:50 AM 41.0 °F 39.0 °F 37.4 °F 87% 29.77 in 6.2 mi ESE 3.5 mph - N/A   Partly Cloudy
11:20 AM 41.0 °F 38.0 °F 37.4 °F 87% 29.77 in 6.2 mi ESE 4.6 mph - N/A   Partly Cloudy
11:50 AM 42.8 °F 40.1 °F 39.2 °F 87% 29.77 in 6.2 mi ENE 4.6 mph - N/A   Scattered Clouds
12:20 PM 42.8 °F - 37.4 °F 81% 29.77 in 6.2 mi Variable 2.3 mph - N/A   Scattered Clouds
12:50 PM 42.8 °F - 37.4 °F 81% 29.77 in 6.2 mi East 2.3 mph - N/A   Scattered Clouds
1:20 PM 42.8 °F 41.1 °F 39.2 °F 87% 29.77 in 6.2 mi East 3.5 mph - N/A   Scattered Clouds
1:50 PM 42.8 °F - 39.2 °F 87% 29.77 in 6.2 mi Variable 1.2 mph - N/A   Scattered Clouds
2:20 PM 42.8 °F - 39.2 °F 87% 29.77 in 6.2 mi Calm Calm - N/A   Mostly Cloudy
2:50 PM 42.8 °F - 39.2 °F 87% 29.80 in 6.2 mi Variable 1.2 mph - N/A   Mostly Cloudy
3:20 PM 44.6 °F - 39.2 °F 81% 29.80 in 6.2 mi SE 2.3 mph - N/A   Scattered Clouds
3:50 PM 42.8 °F - 39.2 °F 87% 29.80 in 6.2 mi SE 1.2 mph - N/A   Scattered Clouds
4:20 PM 41.0 °F 39.0 °F 37.4 °F 87% 29.80 in 6.2 mi ESE 3.5 mph - N/A   Scattered Clouds
4:50 PM 41.0 °F - 37.4 °F 87% 29.83 in 6.2 mi SE 2.3 mph - N/A   Partly Cloudy
5:20 PM 41.0 °F - 37.4 °F 87% 29.83 in 6.2 mi SE 2.3 mph - N/A   Scattered Clouds
5:50 PM 41.0 °F - 39.2 °F 93% 29.83 in 6.2 mi ESE 2.3 mph - N/A   Mostly Cloudy
6:20 PM 41.0 °F 39.0 °F 39.2 °F 93% 29.83 in 6.2 mi SSE 3.5 mph - N/A   Mostly Cloudy
6:50 PM 39.2 °F 37.0 °F 37.4 °F 93% 29.83 in 6.2 mi SE 3.5 mph - N/A   Mostly Cloudy
7:20 PM 41.0 °F 39.0 °F 39.2 °F 93% 29.83 in 6.2 mi SSE 3.5 mph - N/A   Mostly Cloudy
7:50 PM 41.0 °F - 39.2 °F 93% 29.83 in 6.2 mi Variable 2.3 mph - N/A   Mostly Cloudy
8:20 PM 41.0 °F - 39.2 °F 93% 29.83 in 6.2 mi SSE 2.3 mph - N/A   Mostly Cloudy
8:50 PM 41.0 °F - 39.2 °F 93% 29.83 in 6.2 mi SSE 2.3 mph - N/A   Mostly Cloudy
9:20 PM 41.0 °F 39.0 °F 39.2 °F 93% 29.86 in 6.2 mi SSW 3.5 mph - N/A   Mostly Cloudy
9:50 PM 39.2 °F 37.0 °F 37.4 °F 93% 29.86 in 6.2 mi SE 3.5 mph - N/A   Scattered Clouds
10:20 PM 41.0 °F 39.0 °F 37.4 °F 87% 29.86 in 6.2 mi Variable 3.5 mph - N/A   Scattered Clouds
10:50 PM 41.0 °F - 39.2 °F 93% 29.86 in 6.2 mi Variable 1.2 mph - N/A   Scattered Clouds
11:20 PM 39.2 °F 37.0 °F 37.4 °F 93% 29.86 in 6.2 mi Variable 3.5 mph - N/A   Scattered Clouds
11:50 PM 39.2 °F 37.0 °F 37.4 °F 93% 29.83 in 6.2 mi East 3.5 mph - N/A   Scattered Clouds